| time (UTC) | temp F | wind direction | speed MPH | gust MPH | rain 1hr in | rain 24hr in | rain mn in | humidity % | barometer mb |
| 20260831005848 | 74 | 279 | 0.0 | 0.0 | 0.00 | 0.22 | 0.22 | 96 | 1020.3 |
| 20260831005341 | 74 | 279 | 0.0 | 0.0 | 0.00 | 0.22 | 0.22 | 96 | 1020.2 |
| 20260831004835 | 74 | 279 | 0.0 | 0.0 | 0.00 | 0.22 | 0.22 | 96 | 1020.1 |
| 20260831004329 | 74 | 279 | 0.0 | 0.0 | 0.00 | 0.22 | 0.22 | 95 | 1020.1 |
| 20260831003824 | 75 | 279 | 0.0 | 0.0 | 0.00 | 0.22 | 0.22 | 95 | 1020.1 |
| 20260831003548 | 75 | 279 | 0.0 | 0.0 | 0.00 | 0.22 | 0.22 | 94 | 1020.1 |
| 20260831002812 | 75 | 279 | 0.0 | 0.0 | 0.00 | 0.22 | 0.22 | 94 | 1020.0 |
| 20260831002306 | 75 | 279 | 0.0 | 0.0 | 0.00 | 0.22 | 0.22 | 94 | 1020.0 |
| 20260831001800 | 76 | 279 | 0.0 | 0.0 | 0.00 | 0.22 | 0.22 | 93 | 1019.9 |
| 20260831001254 | 76 | 279 | 0.0 | 0.0 | 0.00 | 0.22 | 0.22 | 93 | 1019.8 |
| 20260831000748 | 77 | 279 | 0.0 | 0.0 | 0.00 | 0.22 | 0.22 | 91 | 1019.8 |
| 20260831000513 | 77 | 279 | 0.0 | 0.0 | 0.00 | 0.22 | 0.22 | 90 | 1019.6 |
| 20260830235735 | 78 | 279 | 0.0 | 0.0 | 0.00 | 0.22 | 0.22 | 88 | 1019.5 |
| 20260830235230 | 79 | 279 | 0.0 | 0.0 | 0.00 | 0.22 | 0.22 | 86 | 1019.5 |
| 20260830234724 | 80 | 279 | 0.0 | 0.0 | 0.00 | 0.22 | 0.22 | 86 | 1019.5 |
| 20260830234218 | 81 | 279 | 0.0 | 0.0 | 0.00 | 0.22 | 0.22 | 83 | 1019.5 |
| 20260830233711 | 82 | 279 | 0.0 | 0.0 | 0.00 | 0.22 | 0.22 | 82 | 1019.5 |
| 20260830233212 | 83 | 279 | 0.0 | 0.0 | 0.00 | 0.22 | 0.22 | 81 | 1019.5 |
| 20260830232712 | 83 | 279 | 0.0 | 0.0 | 0.00 | 0.22 | 0.22 | 80 | 1019.5 |
| 20260830232214 | 83 | 279 | 0.0 | 0.0 | 0.00 | 0.22 | 0.22 | 80 | 1019.5 |
| 20260830231944 | 83 | 279 | 0.0 | 0.0 | 0.00 | 0.22 | 0.22 | 81 | 1019.5 |
| 20260830231210 | 83 | 279 | 0.0 | 0.0 | 0.00 | 0.22 | 0.22 | 78 | 1019.5 |
| 20260830230709 | 84 | 279 | 0.0 | 0.0 | 0.00 | 0.22 | 0.22 | 78 | 1019.5 |
| 20260830230207 | 85 | 279 | 0.0 | 0.0 | 0.00 | 0.22 | 0.22 | 75 | 1019.5 |
| 20260830225706 | 85 | 279 | 0.0 | 0.0 | 0.00 | 0.22 | 0.22 | 75 | 1019.5 |
| 20260830225205 | 86 | 279 | 0.0 | 0.0 | 0.00 | 0.22 | 0.22 | 72 | 1019.4 |
| 20260830224705 | 87 | 279 | 0.0 | 0.0 | 0.00 | 0.22 | 0.22 | 76 | 1019.4 |
| 20260830224205 | 87 | 279 | 0.0 | 0.0 | 0.00 | 0.22 | 0.22 | 76 | 1019.5 |
| 20260830223703 | 87 | 279 | 0.0 | 0.0 | 0.00 | 0.22 | 0.22 | 72 | 1019.5 |
| 20260830223437 | 87 | 279 | 0.0 | 0.0 | 0.00 | 0.22 | 0.22 | 72 | 1019.4 |
| 20260830222659 | 87 | 279 | 0.0 | 0.0 | 0.00 | 0.22 | 0.22 | 70 | 1019.4 |
| 20260830222159 | 87 | 279 | 0.0 | 0.0 | 0.00 | 0.22 | 0.22 | 71 | 1019.4 |
| 20260830221652 | 86 | 279 | 0.0 | 0.0 | 0.00 | 0.22 | 0.22 | 70 | 1019.4 |
| 20260830221154 | 87 | 279 | 0.0 | 0.0 | 0.00 | 0.22 | 0.22 | 69 | 1019.4 |
| 20260830220654 | 87 | 279 | 0.0 | 0.0 | 0.00 | 0.22 | 0.22 | 71 | 1019.3 |
| 20260830220154 | 87 | 279 | 0.0 | 1.0 | 0.00 | 0.22 | 0.22 | 71 | 1019.4 |
| 20260830215654 | 87 | 279 | 0.0 | 1.0 | 0.00 | 0.22 | 0.22 | 71 | 1019.3 |
| 20260830215148 | 88 | 279 | 0.0 | 2.0 | 0.00 | 0.22 | 0.22 | 69 | 1019.4 |
| 20260830214642 | 88 | 279 | 0.0 | 2.0 | 0.00 | 0.22 | 0.22 | 66 | 1019.4 |
| 20260830214136 | 88 | 319 | 0.0 | 0.0 | 0.00 | 0.22 | 0.22 | 70 | 1019.4 |
| 20260830213631 | 88 | 319 | 0.0 | 0.0 | 0.00 | 0.22 | 0.22 | 70 | 1019.4 |
| 20260830213125 | 88 | 319 | 0.0 | 0.0 | 0.00 | 0.22 | 0.22 | 67 | 1019.4 |
| 20260830212852 | 87 | 319 | 0.0 | 0.0 | 0.00 | 0.22 | 0.22 | 66 | 1019.5 |
| 20260830212112 | 88 | 318 | 0.0 | 0.0 | 0.00 | 0.22 | 0.22 | 65 | 1019.5 |
| 20260830211606 | 87 | 321 | 0.0 | 3.0 | 0.00 | 0.22 | 0.22 | 65 | 1019.5 |
| 20260830211102 | 87 | 325 | 0.0 | 3.0 | 0.00 | 0.22 | 0.22 | 73 | 1019.6 |
| 20260830210554 | 87 | 258 | 0.0 | 0.0 | 0.00 | 0.22 | 0.22 | 68 | 1019.6 |
| 20260830210048 | 87 | 258 | 0.0 | 1.0 | 0.00 | 0.22 | 0.22 | 67 | 1019.6 |
| 20260830205543 | 87 | 258 | 0.0 | 1.0 | 0.00 | 0.22 | 0.22 | 65 | 1019.6 |
| 20260830205037 | 88 | 258 | 0.0 | 1.0 | 0.00 | 0.22 | 0.22 | 71 | 1019.6 |
| 20260830204530 | 88 | 257 | 0.0 | 0.0 | 0.00 | 0.22 | 0.22 | 66 | 1019.6 |
| 20260830204301 | 88 | 255 | 0.0 | 0.0 | 0.00 | 0.22 | 0.22 | 67 | 1019.6 |
| 20260830203528 | 87 | 255 | 0.0 | 0.0 | 0.00 | 0.22 | 0.22 | 67 | 1019.9 |
| 20260830203300 | 87 | 255 | 0.0 | 0.0 | 0.00 | 0.22 | 0.22 | 66 | 1019.8 |
| 20260830202758 | 87 | 316 | 0.0 | 1.0 | 0.00 | 0.22 | 0.22 | 69 | 1019.8 |
| 20260830202024 | 86 | 350 | 1.0 | 6.0 | 0.00 | 0.22 | 0.22 | 67 | 1019.9 |
| 20260830201532 | 87 | 350 | 1.0 | 6.0 | 0.00 | 0.22 | 0.22 | 69 | 1019.9 |
| 20260830201025 | 87 | 105 | 0.0 | 2.0 | 0.00 | 0.22 | 0.22 | 69 | 1020.0 |
| 20260830200525 | 87 | 107 | 0.0 | 1.0 | 0.00 | 0.22 | 0.22 | 71 | 1020.1 |
| 20260830200026 | 86 | 107 | 0.0 | 1.0 | 0.00 | 0.22 | 0.22 | 69 | 1020.1 |
| 20260830195520 | 86 | 12 | 0.0 | 3.0 | 0.00 | 0.22 | 0.22 | 73 | 1020.1 |
| 20260830195253 | 86 | 184 | 0.0 | 3.0 | 0.00 | 0.22 | 0.22 | 71 | 1020.1 |
| 20260830194521 | 86 | 144 | 0.0 | 2.0 | 0.00 | 0.22 | 0.22 | 73 | 1020.3 |
| 20260830194021 | 85 | 145 | 1.0 | 5.0 | 0.00 | 0.22 | 0.22 | 75 | 1020.4 |
| 20260830193520 | 86 | 350 | 1.0 | 5.0 | 0.00 | 0.22 | 0.22 | 74 | 1020.4 |
| 20260830193021 | 85 | 9 | 0.0 | 3.0 | 0.00 | 0.22 | 0.22 | 74 | 1020.5 |
| 20260830192521 | 85 | 9 | 0.0 | 3.0 | 0.00 | 0.22 | 0.22 | 73 | 1020.6 |
| 20260830192021 | 85 | 141 | 0.0 | 1.0 | 0.00 | 0.22 | 0.22 | 73 | 1020.7 |
| 20260830191521 | 85 | 205 | 0.0 | 2.0 | 0.00 | 0.22 | 0.22 | 75 | 1020.7 |
| 20260830190518 | 83 | 14 | 0.0 | 0.0 | 0.00 | 0.22 | 0.22 | 80 | 1021.0 |
| 20260830190016 | 83 | 11 | 0.0 | 0.0 | 0.00 | 0.22 | 0.22 | 80 | 1021.1 |
| 20260830185517 | 83 | 11 | 0.0 | 0.0 | 0.00 | 0.22 | 0.22 | 80 | 1021.2 |
| 20260830185017 | 84 | 11 | 0.0 | 5.0 | 0.00 | 0.22 | 0.22 | 78 | 1021.2 |
| 20260830184517 | 84 | 11 | 0.0 | 6.0 | 0.00 | 0.22 | 0.22 | 78 | 1021.3 |
| 20260830184015 | 85 | 344 | 0.0 | 6.0 | 0.00 | 0.22 | 0.22 | 79 | 1021.4 |
| 20260830183516 | 84 | 70 | 1.0 | 6.0 | 0.00 | 0.22 | 0.22 | 75 | 1021.4 |
| 20260830183012 | 84 | 142 | 1.0 | 6.0 | 0.00 | 0.22 | 0.22 | 76 | 1021.5 |
| 20260830182514 | 83 | 153 | 0.0 | 6.0 | 0.00 | 0.22 | 0.22 | 78 | 1021.6 |
| 20260830182012 | 83 | 178 | 1.0 | 5.0 | 0.00 | 0.22 | 0.22 | 82 | 1021.7 |
| 20260830181742 | 82 | 23 | 0.0 | 5.0 | 0.00 | 0.22 | 0.22 | 79 | 1021.8 |
| 20260830181011 | 82 | 62 | 0.0 | 2.0 | 0.00 | 0.22 | 0.22 | 81 | 1021.8 |
| 20260830180509 | 82 | 336 | 0.0 | 5.0 | 0.00 | 0.22 | 0.22 | 82 | 1021.8 |
| 20260830180008 | 82 | 111 | 0.0 | 5.0 | 0.00 | 0.22 | 0.22 | 80 | 1022.0 |
| 20260830175508 | 82 | 143 | 0.0 | 3.0 | 0.00 | 0.22 | 0.22 | 83 | 1022.0 |
| 20260830175239 | 81 | 30 | 0.0 | 3.0 | 0.00 | 0.22 | 0.22 | 82 | 1022.0 |
| 20260830174503 | 82 | 18 | 3.0 | 7.0 | 0.00 | 0.22 | 0.22 | 83 | 1022.0 |
| 20260830173957 | 82 | 17 | 3.0 | 7.0 | 0.00 | 0.22 | 0.22 | 80 | 1022.1 |
| 20260830173450 | 82 | 350 | 2.0 | 6.0 | 0.00 | 0.22 | 0.22 | 82 | 1022.2 |
| 20260830172945 | 82 | 343 | 1.0 | 5.0 | 0.00 | 0.22 | 0.22 | 83 | 1022.2 |
| 20260830172438 | 82 | 153 | 1.0 | 5.0 | 0.00 | 0.22 | 0.22 | 83 | 1022.2 |
| 20260830171933 | 81 | 355 | 0.0 | 0.0 | 0.00 | 0.22 | 0.22 | 86 | 1022.3 |
| 20260830171427 | 80 | 355 | 0.0 | 2.0 | 0.00 | 0.22 | 0.22 | 84 | 1022.4 |
| 20260830170921 | 80 | 0 | 0.0 | 2.0 | 0.00 | 0.22 | 0.22 | 87 | 1022.5 |
| 20260830170415 | 80 | 0 | 0.0 | 0.0 | 0.00 | 0.22 | 0.22 | 90 | 1022.7 |
| 20260830170140 | 79 | 0 | 0.0 | 0.0 | 0.00 | 0.22 | 0.22 | 89 | 1022.7 |
| 20260830165403 | 79 | 0 | 0.0 | 5.0 | 0.00 | 0.22 | 0.22 | 89 | 1022.8 |
| 20260830165129 | 79 | 348 | 1.0 | 5.0 | 0.00 | 0.22 | 0.22 | 87 | 1022.8 |
| 20260830164351 | 80 | 321 | 2.0 | 5.0 | 0.00 | 0.22 | 0.22 | 87 | 1022.9 |
| 20260830163845 | 80 | 321 | 2.0 | 6.0 | 0.00 | 0.22 | 0.22 | 85 | 1022.9 |
| 20260830163339 | 80 | 24 | 1.0 | 6.0 | 0.00 | 0.22 | 0.22 | 87 | 1022.9 |
| 20260830162833 | 80 | 161 | 1.0 | 5.0 | 0.00 | 0.22 | 0.22 | 86 | 1023.0 |
| 20260830162327 | 79 | 5 | 0.0 | 5.0 | 0.00 | 0.22 | 0.22 | 90 | 1023.1 |
| 20260830161820 | 78 | 5 | 0.0 | 0.0 | 0.00 | 0.22 | 0.22 | 90 | 1023.1 |
| 20260830161314 | 78 | 5 | 0.0 | 0.0 | 0.00 | 0.22 | 0.22 | 91 | 1023.2 |
| 20260830161039 | 78 | 5 | 0.0 | 2.0 | 0.00 | 0.22 | 0.22 | 91 | 1023.2 |
| 20260830160302 | 78 | 5 | 0.0 | 4.0 | 0.00 | 0.22 | 0.22 | 91 | 1023.2 |
| 20260830155757 | 78 | 9 | 1.0 | 4.0 | 0.00 | 0.22 | 0.22 | 93 | 1023.2 |
| 20260830155251 | 78 | 12 | 0.0 | 3.0 | 0.00 | 0.22 | 0.22 | 91 | 1023.3 |
| 20260830154745 | 78 | 12 | 0.0 | 0.0 | 0.00 | 0.22 | 0.22 | 93 | 1023.2 |
| 20260830154239 | 77 | 12 | 0.0 | 0.0 | 0.00 | 0.22 | 0.22 | 93 | 1023.2 |
| 20260830153733 | 77 | 12 | 0.0 | 1.0 | 0.00 | 0.22 | 0.22 | 92 | 1023.2 |
| 20260830153227 | 77 | 11 | 1.0 | 4.0 | 0.00 | 0.22 | 0.22 | 93 | 1023.2 |
| 20260830152721 | 77 | 180 | 1.0 | 4.0 | 0.00 | 0.22 | 0.22 | 93 | 1023.2 |
| 20260830152459 | 77 | 153 | 0.0 | 0.0 | 0.00 | 0.22 | 0.22 | 93 | 1023.2 |
| 20260830151709 | 77 | 153 | 0.0 | 0.0 | 0.00 | 0.22 | 0.22 | 93 | 1023.2 |
| 20260830151433 | 76 | 153 | 0.0 | 0.0 | 0.00 | 0.22 | 0.22 | 96 | 1023.2 |
| 20260830150657 | 76 | 153 | 0.0 | 0.0 | 0.00 | 0.22 | 0.22 | 95 | 1023.2 |
| 20260830150151 | 76 | 153 | 0.0 | 0.0 | 0.00 | 0.22 | 0.22 | 96 | 1023.3 |
| 20260830145645 | 76 | 153 | 0.0 | 0.0 | 0.00 | 0.22 | 0.22 | 98 | 1023.2 |
| 20260830145142 | 75 | 153 | 0.0 | 0.0 | 0.00 | 0.22 | 0.22 | 98 | 1023.2 |
| 20260830144913 | 75 | 153 | 0.0 | 0.0 | 0.00 | 0.22 | 0.22 | 100 | 1023.2 |
| 20260830144141 | 74 | 153 | 0.0 | 3.0 | 0.00 | 0.22 | 0.22 | 99 | 1023.2 |
| 20260830143639 | 74 | 153 | 0.0 | 3.0 | 0.00 | 0.22 | 0.22 | 99 | 1023.2 |
| 20260830143136 | 74 | 271 | 0.0 | 1.0 | 0.00 | 0.22 | 0.22 | 99 | 1023.2 |
| 20260830142634 | 74 | 271 | 0.0 | 1.0 | 0.00 | 0.22 | 0.22 | 100 | 1023.3 |
| 20260830142132 | 74 | 271 | 0.0 | 0.0 | 0.00 | 0.22 | 0.22 | 100 | 1023.3 |
| 20260830141903 | 74 | 271 | 0.0 | 0.0 | 0.00 | 0.22 | 0.22 | 100 | 1023.2 |
| 20260830141133 | 74 | 271 | 0.0 | 4.0 | 0.00 | 0.22 | 0.22 | 100 | 1023.1 |
| 20260830140631 | 74 | 271 | 0.0 | 4.0 | 0.00 | 0.22 | 0.22 | 100 | 1023.1 |
| 20260830140133 | 74 | 232 | 0.0 | 0.0 | 0.00 | 0.22 | 0.22 | 100 | 1023.1 |
| 20260830135631 | 74 | 232 | 0.0 | 0.0 | 0.00 | 0.22 | 0.22 | 100 | 1023.1 |
| 20260830134630 | 74 | 232 | 0.0 | 0.0 | 0.00 | 0.22 | 0.22 | 100 | 1023.1 |
| 20260830134129 | 74 | 232 | 0.0 | 0.0 | 0.00 | 0.22 | 0.22 | 100 | 1023.0 |
| 20260830133626 | 74 | 231 | 0.0 | 0.0 | 0.00 | 0.22 | 0.22 | 100 | 1023.0 |
| 20260830133123 | 74 | 231 | 0.0 | 1.0 | 0.00 | 0.22 | 0.22 | 100 | 1023.0 |
| 20260830132625 | 73 | 231 | 0.0 | 1.0 | 0.00 | 0.22 | 0.22 | 100 | 1023.0 |
| 20260830132125 | 74 | 231 | 0.0 | 0.0 | 0.00 | 0.22 | 0.22 | 100 | 1023.1 |
| 20260830131625 | 73 | 231 | 0.0 | 0.0 | 0.00 | 0.22 | 0.22 | 100 | 1023.1 |
| 20260830131123 | 73 | 231 | 0.0 | 0.0 | 0.00 | 0.22 | 0.22 | 100 | 1023.1 |
| 20260830130620 | 73 | 231 | 0.0 | 0.0 | 0.00 | 0.22 | 0.22 | 100 | 1023.1 |
| 20260830130120 | 73 | 231 | 0.0 | 1.0 | 0.00 | 0.22 | 0.22 | 100 | 1023.2 |
| 20260830125852 | 73 | 231 | 0.0 | 1.0 | 0.00 | 0.22 | 0.22 | 100 | 1023.2 |
| 20260830125121 | 73 | 236 | 0.0 | 0.0 | 0.00 | 0.22 | 0.22 | 100 | 1023.2 |
| 20260830124850 | 73 | 236 | 0.0 | 0.0 | 0.00 | 0.22 | 0.22 | 100 | 1023.2 |
| 20260830124121 | 73 | 236 | 0.0 | 0.0 | 0.00 | 0.22 | 0.22 | 100 | 1023.1 |
| 20260830123620 | 73 | 236 | 0.0 | 0.0 | 0.00 | 0.22 | 0.22 | 100 | 1023.1 |
| 20260830123126 | 72 | 236 | 0.0 | 0.0 | 0.00 | 0.22 | 0.22 | 100 | 1023.0 |
| 20260830122621 | 72 | 236 | 0.0 | 0.0 | 0.00 | 0.22 | 0.22 | 100 | 1023.0 |
| 20260830121615 | 72 | 236 | 0.0 | 0.0 | 0.00 | 0.22 | 0.22 | 100 | 1022.8 |
| 20260830121116 | 72 | 236 | 0.0 | 0.0 | 0.00 | 0.22 | 0.22 | 100 | 1022.8 |
| 20260830120615 | 72 | 236 | 0.0 | 0.0 | 0.00 | 0.22 | 0.22 | 100 | 1022.9 |
| 20260830120117 | 72 | 236 | 0.0 | 0.0 | 0.00 | 0.22 | 0.22 | 100 | 1022.8 |
| 20260830115846 | 72 | 236 | 0.0 | 0.0 | 0.00 | 0.22 | 0.22 | 100 | 1022.8 |
| 20260830115117 | 72 | 236 | 0.0 | 0.0 | 0.00 | 0.22 | 0.22 | 100 | 1022.7 |
| 20260830114846 | 72 | 236 | 0.0 | 0.0 | 0.00 | 0.22 | 0.22 | 100 | 1022.6 |
| 20260830114117 | 72 | 236 | 0.0 | 0.0 | 0.00 | 0.22 | 0.22 | 100 | 1022.6 |
| 20260830113613 | 72 | 236 | 0.0 | 0.0 | 0.00 | 0.22 | 0.22 | 100 | 1022.3 |
| 20260830113112 | 72 | 236 | 0.0 | 0.0 | 0.00 | 0.22 | 0.22 | 100 | 1022.3 |
| 20260830112612 | 72 | 236 | 0.0 | 0.0 | 0.00 | 0.22 | 0.22 | 100 | 1022.2 |
| 20260830112112 | 72 | 236 | 0.0 | 0.0 | 0.00 | 0.22 | 0.22 | 100 | 1022.2 |
| 20260830111613 | 72 | 236 | 0.0 | 0.0 | 0.00 | 0.22 | 0.22 | 100 | 1022.2 |
| 20260830111113 | 72 | 236 | 0.0 | 0.0 | 0.00 | 0.22 | 0.22 | 100 | 1022.1 |
| 20260830110612 | 72 | 236 | 0.0 | 0.0 | 0.00 | 0.22 | 0.22 | 100 | 1022.1 |
| 20260830110112 | 72 | 236 | 0.0 | 0.0 | 0.00 | 0.22 | 0.22 | 100 | 1022.1 |
| 20260830105842 | 72 | 236 | 0.0 | 0.0 | 0.00 | 0.22 | 0.22 | 100 | 1022.1 |
| 20260830105114 | 72 | 236 | 0.0 | 0.0 | 0.00 | 0.22 | 0.22 | 100 | 1022.1 |
| 20260830104612 | 72 | 236 | 0.0 | 0.0 | 0.00 | 0.22 | 0.22 | 100 | 1022.0 |
| 20260830104106 | 72 | 236 | 0.0 | 0.0 | 0.00 | 0.22 | 0.22 | 100 | 1021.8 |
| 20260830103836 | 72 | 236 | 0.0 | 0.0 | 0.00 | 0.22 | 0.22 | 100 | 1021.8 |
| 20260830103101 | 72 | 236 | 0.0 | 0.0 | 0.00 | 0.22 | 0.22 | 100 | 1021.7 |
| 20260830102832 | 72 | 236 | 0.0 | 0.0 | 0.00 | 0.22 | 0.22 | 100 | 1021.6 |
| 20260830102055 | 72 | 236 | 0.0 | 0.0 | 0.00 | 0.22 | 0.22 | 100 | 1021.6 |
| 20260830101821 | 71 | 236 | 0.0 | 0.0 | 0.00 | 0.22 | 0.22 | 100 | 1021.6 |
| 20260830101316 | 71 | 236 | 0.0 | 0.0 | 0.00 | 0.22 | 0.22 | 100 | 1021.6 |
| 20260830100537 | 71 | 236 | 0.0 | 0.0 | 0.00 | 0.22 | 0.22 | 100 | 1021.5 |
| 20260830100032 | 71 | 236 | 0.0 | 0.0 | 0.00 | 0.22 | 0.22 | 100 | 1021.5 |
| 20260830095526 | 71 | 236 | 0.0 | 0.0 | 0.00 | 0.22 | 0.22 | 100 | 1021.5 |
| 20260830095020 | 71 | 236 | 0.0 | 0.0 | 0.00 | 0.22 | 0.22 | 100 | 1021.5 |
| 20260830094514 | 71 | 236 | 0.0 | 0.0 | 0.00 | 0.22 | 0.22 | 100 | 1021.4 |
| 20260830094007 | 71 | 236 | 0.0 | 0.0 | 0.00 | 0.22 | 0.22 | 100 | 1021.5 |
| 20260830093502 | 71 | 236 | 0.0 | 0.0 | 0.00 | 0.22 | 0.22 | 100 | 1021.4 |
| 20260830093229 | 71 | 236 | 0.0 | 0.0 | 0.00 | 0.22 | 0.22 | 100 | 1021.4 |
| 20260830092450 | 71 | 236 | 0.0 | 0.0 | 0.00 | 0.22 | 0.22 | 100 | 1021.4 |
| 20260830092214 | 71 | 236 | 0.0 | 0.0 | 0.00 | 0.22 | 0.22 | 100 | 1021.4 |
| 20260830091438 | 71 | 236 | 0.0 | 0.0 | 0.00 | 0.22 | 0.22 | 100 | 1021.4 |
| 20260830090932 | 71 | 236 | 0.0 | 0.0 | 0.00 | 0.22 | 0.22 | 100 | 1021.5 |
| 20260830090426 | 71 | 236 | 0.0 | 0.0 | 0.00 | 0.22 | 0.22 | 100 | 1021.4 |
| 20260830085920 | 71 | 236 | 0.0 | 0.0 | 0.00 | 0.22 | 0.22 | 100 | 1021.5 |
| 20260830085414 | 71 | 236 | 0.0 | 0.0 | 0.00 | 0.22 | 0.22 | 100 | 1021.5 |
| 20260830084908 | 71 | 236 | 0.0 | 0.0 | 0.00 | 0.22 | 0.22 | 100 | 1021.5 |
| 20260830084401 | 71 | 236 | 0.0 | 0.0 | 0.00 | 0.22 | 0.22 | 100 | 1021.5 |
| 20260830083856 | 71 | 236 | 0.0 | 0.0 | 0.00 | 0.22 | 0.22 | 100 | 1021.5 |
| 20260830083350 | 70 | 236 | 0.0 | 0.0 | 0.00 | 0.22 | 0.22 | 100 | 1021.4 |
| 20260830082843 | 70 | 236 | 0.0 | 0.0 | 0.00 | 0.22 | 0.22 | 100 | 1021.4 |
| 20260830082338 | 70 | 236 | 0.0 | 0.0 | 0.00 | 0.22 | 0.22 | 100 | 1021.4 |
| 20260830081832 | 70 | 236 | 0.0 | 0.0 | 0.00 | 0.22 | 0.22 | 100 | 1021.4 |
| 20260830081326 | 70 | 236 | 0.0 | 0.0 | 0.00 | 0.22 | 0.22 | 100 | 1021.3 |
| 20260830080820 | 70 | 236 | 0.0 | 0.0 | 0.00 | 0.22 | 0.22 | 100 | 1021.4 |
| 20260830080314 | 70 | 236 | 0.0 | 0.0 | 0.00 | 0.22 | 0.22 | 100 | 1021.3 |
| 20260830075808 | 70 | 236 | 0.0 | 0.0 | 0.00 | 0.22 | 0.22 | 100 | 1021.4 |
| 20260830075306 | 70 | 236 | 0.0 | 0.0 | 0.00 | 0.22 | 0.22 | 100 | 1021.3 |
| 20260830074755 | 70 | 236 | 0.0 | 0.0 | 0.00 | 0.22 | 0.22 | 100 | 1021.4 |
| 20260830074250 | 70 | 236 | 0.0 | 0.0 | 0.00 | 0.22 | 0.22 | 100 | 1021.4 |
| 20260830073744 | 70 | 236 | 0.0 | 0.0 | 0.00 | 0.22 | 0.22 | 100 | 1021.4 |
| 20260830073238 | 70 | 236 | 0.0 | 0.0 | 0.00 | 0.22 | 0.22 | 100 | 1021.4 |
| 20260830072732 | 70 | 236 | 0.0 | 0.0 | 0.00 | 0.22 | 0.22 | 100 | 1021.5 |
| 20260830072226 | 71 | 236 | 0.0 | 0.0 | 0.00 | 0.22 | 0.22 | 100 | 1021.5 |
| 20260830071719 | 71 | 236 | 0.0 | 0.0 | 0.00 | 0.22 | 0.22 | 100 | 1021.4 |
| 20260830070708 | 71 | 236 | 0.0 | 0.0 | 0.00 | 0.22 | 0.22 | 100 | 1021.5 |
| 20260830070433 | 71 | 236 | 0.0 | 0.0 | 0.00 | 0.22 | 0.22 | 100 | 1021.5 |
| 20260830065702 | 71 | 236 | 0.0 | 0.0 | 0.00 | 0.22 | 0.22 | 100 | 1021.5 |
| 20260830065202 | 71 | 236 | 0.0 | 0.0 | 0.00 | 0.22 | 0.22 | 100 | 1021.5 |
| 20260830064932 | 71 | 236 | 0.0 | 0.0 | 0.00 | 0.22 | 0.22 | 100 | 1021.5 |
| 20260830064200 | 71 | 236 | 0.0 | 0.0 | 0.00 | 0.22 | 0.22 | 100 | 1021.5 |
| 20260830063703 | 71 | 236 | 0.0 | 0.0 | 0.00 | 0.22 | 0.22 | 100 | 1021.6 |
| 20260830063200 | 71 | 236 | 0.0 | 0.0 | 0.00 | 0.22 | 0.22 | 100 | 1021.6 |
| 20260830062658 | 71 | 236 | 0.0 | 0.0 | 0.00 | 0.22 | 0.22 | 100 | 1021.6 |
| 20260830062231 | 71 | 236 | 0.0 | 0.0 | 0.00 | 0.22 | 0.22 | 100 | 1021.7 |
| 20260830061207 | 71 | 236 | 0.0 | 0.0 | 0.00 | 0.22 | 0.22 | 100 | 1021.7 |
| 20260830061013 | 71 | 236 | 0.0 | 0.0 | 0.00 | 0.22 | 0.22 | 100 | 1021.8 |
| 20260830060157 | 71 | 236 | 0.0 | 0.0 | 0.00 | 0.22 | 0.22 | 100 | 1021.8 |
| 20260830055649 | 72 | 236 | 0.0 | 0.0 | 0.00 | 0.22 | 0.22 | 99 | 1021.8 |
| 20260830055147 | 72 | 236 | 0.0 | 0.0 | 0.00 | 0.22 | 0.22 | 100 | 1021.8 |
| 20260830054646 | 72 | 236 | 0.0 | 0.0 | 0.00 | 0.22 | 0.22 | 100 | 1021.8 |
| 20260830054145 | 72 | 236 | 0.0 | 0.0 | 0.00 | 0.22 | 0.22 | 100 | 1021.9 |
| 20260830053646 | 72 | 236 | 0.0 | 0.0 | 0.00 | 0.22 | 0.22 | 100 | 1021.8 |
| 20260830053142 | 72 | 236 | 0.0 | 0.0 | 0.00 | 0.22 | 0.22 | 100 | 1021.9 |
| 20260830052641 | 72 | 236 | 0.0 | 0.0 | 0.01 | 0.22 | 0.22 | 100 | 1021.8 |
| 20260830052150 | 72 | 236 | 0.0 | 0.0 | 0.01 | 0.22 | 0.22 | 100 | 1021.9 |
| 20260830051648 | 72 | 236 | 0.0 | 0.0 | 0.06 | 0.22 | 0.22 | 99 | 1021.9 |
| 20260830051150 | 73 | 236 | 0.0 | 0.0 | 0.12 | 0.22 | 0.22 | 100 | 1021.9 |
| 20260830050644 | 73 | 236 | 0.0 | 0.0 | 0.20 | 0.22 | 0.22 | 100 | 1021.8 |
| 20260830050140 | 73 | 236 | 0.0 | 0.0 | 0.22 | 0.22 | 0.22 | 100 | 1021.8 |
| 20260830045642 | 73 | 236 | 0.0 | 0.0 | 0.22 | 0.22 | 0.22 | 100 | 1021.8 |
| 20260830045141 | 73 | 236 | 0.0 | 0.0 | 0.22 | 0.22 | 0.22 | 100 | 1021.8 |
| 20260830044641 | 73 | 236 | 0.0 | 0.0 | 0.22 | 0.22 | 0.22 | 99 | 1021.9 |
| 20260830044140 | 73 | 236 | 0.0 | 0.0 | 0.22 | 0.22 | 0.22 | 99 | 1021.8 |
| 20260830043640 | 73 | 236 | 0.0 | 0.0 | 0.22 | 0.22 | 0.22 | 99 | 1021.9 |
| 20260830043141 | 73 | 236 | 0.0 | 0.0 | 0.22 | 0.22 | 0.22 | 99 | 1021.9 |
| 20260830042640 | 73 | 236 | 0.0 | 0.0 | 0.21 | 0.21 | 0.21 | 99 | 1022.0 |
| 20260830042416 | 73 | 236 | 1.0 | 7.0 | 0.21 | 0.21 | 0.21 | 99 | 1022.1 |
| 20260830041912 | 73 | 244 | 1.0 | 7.0 | 0.16 | 0.16 | 0.17 | 99 | 1022.0 |
| 20260830041140 | 73 | 170 | 0.0 | 5.0 | 0.10 | 0.10 | 0.11 | 99 | 1022.2 |
| 20260830040641 | 73 | 42 | 0.0 | 4.0 | 0.02 | 0.02 | 0.02 | 100 | 1022.3 |
| 20260830040135 | 73 | 127 | 0.0 | 0.0 | 0.00 | 0.00 | 0.00 | 100 | 1022.3 |
| 20260830035630 | 73 | 127 | 0.0 | 0.0 | 0.00 | 0.00 | 0.00 | 100 | 1022.3 |
| 20260830035123 | 73 | 127 | 0.0 | 0.0 | 0.00 | 0.00 | 0.00 | 100 | 1022.3 |
| 20260830034850 | 72 | 127 | 0.0 | 0.0 | 0.00 | 0.00 | 0.00 | 99 | 1022.3 |
| 20260830034112 | 72 | 127 | 0.0 | 0.0 | 0.00 | 0.00 | 0.00 | 99 | 1022.2 |
| 20260830033837 | 72 | 127 | 0.0 | 0.0 | 0.00 | 0.00 | 0.00 | 99 | 1022.1 |
| 20260830033331 | 72 | 127 | 0.0 | 0.0 | 0.00 | 0.00 | 0.00 | 99 | 1022.0 |
| 20260830032554 | 73 | 127 | 0.0 | 0.0 | 0.00 | 0.00 | 0.00 | 100 | 1022.1 |
| 20260830032049 | 73 | 127 | 0.0 | 0.0 | 0.00 | 0.00 | 0.00 | 100 | 1022.0 |
| 20260830031541 | 73 | 127 | 0.0 | 0.0 | 0.00 | 0.00 | 0.00 | 100 | 1022.0 |
| 20260830031315 | 72 | 127 | 0.0 | 0.0 | 0.00 | 0.00 | 0.00 | 99 | 1022.1 |
| 20260830030529 | 72 | 127 | 0.0 | 0.0 | 0.00 | 0.00 | 0.00 | 99 | 1022.0 |
| 20260830030024 | 72 | 127 | 0.0 | 0.0 | 0.00 | 0.00 | 0.00 | 99 | 1022.0 |
| 20260830025518 | 72 | 127 | 0.0 | 0.0 | 0.00 | 0.00 | 0.00 | 99 | 1021.9 |
| 20260830025243 | 72 | 127 | 0.0 | 0.0 | 0.00 | 0.00 | 0.00 | 98 | 1021.8 |
| 20260830024506 | 72 | 127 | 0.0 | 0.0 | 0.00 | 0.00 | 0.00 | 99 | 1021.8 |
| 20260830024231 | 72 | 127 | 0.0 | 0.0 | 0.00 | 0.00 | 0.00 | 98 | 1021.8 |
| 20260830023453 | 72 | 127 | 0.0 | 0.0 | 0.00 | 0.00 | 0.00 | 99 | 1021.8 |
| 20260830022947 | 72 | 127 | 0.0 | 0.0 | 0.00 | 0.00 | 0.00 | 98 | 1021.8 |
| 20260830022442 | 72 | 127 | 0.0 | 0.0 | 0.00 | 0.00 | 0.00 | 98 | 1021.8 |
| 20260830021936 | 72 | 127 | 0.0 | 0.0 | 0.00 | 0.00 | 0.00 | 98 | 1021.7 |
| 20260830021430 | 73 | 127 | 0.0 | 0.0 | 0.00 | 0.00 | 0.00 | 99 | 1021.7 |
| 20260830020924 | 72 | 127 | 0.0 | 0.0 | 0.00 | 0.00 | 0.00 | 98 | 1021.5 |
| 20260830020418 | 73 | 127 | 0.0 | 0.0 | 0.00 | 0.00 | 0.00 | 98 | 1021.5 |
| 20260830020143 | 73 | 127 | 0.0 | 0.0 | 0.00 | 0.00 | 0.00 | 98 | 1021.4 |
| 20260830015406 | 73 | 127 | 0.0 | 0.0 | 0.00 | 0.00 | 0.00 | 98 | 1021.4 |
| 20260830014900 | 73 | 127 | 0.0 | 0.0 | 0.00 | 0.00 | 0.00 | 98 | 1021.3 |
| 20260830014626 | 73 | 127 | 0.0 | 0.0 | 0.00 | 0.00 | 0.00 | 97 | 1021.1 |
| 20260830013848 | 73 | 127 | 0.0 | 0.0 | 0.00 | 0.00 | 0.00 | 97 | 1021.0 |
| 20260830013613 | 73 | 127 | 0.0 | 0.0 | 0.00 | 0.00 | 0.00 | 97 | 1020.9 |
| 20260830012836 | 73 | 127 | 0.0 | 0.0 | 0.00 | 0.00 | 0.00 | 97 | 1020.8 |
| 20260830012330 | 73 | 127 | 0.0 | 0.0 | 0.00 | 0.00 | 0.00 | 96 | 1020.7 |
| 20260830011548 | 74 | 127 | 0.0 | 0.0 | 0.00 | 0.00 | 0.00 | 96 | 1020.3 |
| 20260830011042 | 74 | 127 | 0.0 | 0.0 | 0.00 | 0.00 | 0.00 | 96 | 1020.1 |
| 20260830010306 | 74 | 127 | 0.0 | 0.0 | 0.00 | 0.00 | 0.00 | 95 | 1020.1 |